Location: Juzet
(42.9779°N, 0.7597°E)
Time: 19:19:58
(UTC+00:00)

Cosmos 1470 Rocket - Pass Details

Date: 14 July 2020
Orbit: 603 x 634 km, 82.5° (Epoch: 11 August)

Event Time Altitude Azimuth Distance (km) Brightness Sun altitude
Exits shadow 01:16:51 42° 275° (W) 905 4.2 -23.2°
Maximum altitude 01:17:03 43° 283° (WNW) 902 4.3 -23.2°
Drops below altitude 10° 01:21:20 10° 355° (N) 2,029 7.1 -22.9°
Sets 01:23:41 0° 2° (N) 2,940 8.3 -22.8°
